QPF
0.09 0.08 0.02 0.01 0.01 0.00 0.03 0.06 0.02 0.01 0.01 0.05 0.08 0.03 0.05 0.05 0.02 0.01 0.00 0.00 0.00 0.00
0.09 0.05 0.00 0.00 0.00 0.00 0.06 0.03 0.05 0.04 0.10 0.12 0.06 0.05 0.03 0.01 0.00 0.00 0.00 0.00 0.00 0.00
0.08 0.03 0.01 0.00 0.00 0.04 0.15 0.19 0.20 0.08 0.08 0.05 0.03 0.01 0.00 0.00 0.00 0.00 0.00 0.00 0.00 0.00
0.00 0.00 0.00 0.00 0.04 0.12 0.12 0.04 0.08 0.08 0.02 0.00 0.00 0.00 0.00 0.00 0.00 0.00 0.00 0.00 0.00 0.00
0.00 0.00 0.00 0.09 0.18 0.10 0.03 0.08 0.07 0.01 0.00 0.00 0.00 0.00 0.00 0.00 0.00 0.00 0.00 0.00 0.00 0.00
0.00 0.00 0.05 0.15 0.11 0.01 0.02 0.01 0.00 0.00 0.00 0.00 0.00 0.00 0.00 0.00 0.00 0.00 0.00 0.00 0.00 0.00
0.00 0.00 0.09 0.07 0.01 0.00 0.00 0.00 0.00 0.00 0.00 0.00 0.00 0.00 0.00 0.00 0.00 0.00 0.00 0.00 0.00 0.00
0.01 0.05 0.04 0.01 0.00 0.00 0.00 0.00 0.00 0.00 0.00 0.00 0.00 0.00 0.00 0.00 0.00 0.00 0.00 0.00 0.00 0.00
0.02 0.02 0.00 0.00 0.00 0.00 0.00 0.00 0.00 0.00 0.00 0.00 0.00 0.00 0.00 0.00 0.00 0.00 0.00 0.00 0.00 0.00
0.03 0.00 0.00 0.00 0.00 0.00 0.00 0.00 0.00 0.00 0.00 0.00 0.00 0.00 0.00 0.00 0.00 0.00 0.00 0.00 0.00 0.00
0.01 0.00 0.00 0.00 0.00 0.00 0.00 0.00 0.00 0.00 0.00 0.00 0.00 0.00 0.00 0.00 0.00 0.00 0.00 0.00 0.00 0.00
0.00 0.00 0.00 0.00 0.00 0.00 0.00 0.00 0.00 0.00 0.00 0.00 0.00 0.00 0.00 0.00 0.00 0.00 0.00 0.00 0.00 0.00
0.00 0.00 0.00 0.00 0.00 0.00 0.00 0.00 0.00 0.00 0.00 0.00 0.00 0.00 0.00 0.00 0.00 0.00 0.00 0.00 0.00 0.00
0.00 0.00 0.00 0.00 0.00 0.00 0.00 0.00 0.00 0.00 0.00 0.00 0.00 0.00 0.00 0.00 0.00 0.00 0.00 0.00 0.00 0.00
MSLP
1015.49 1015.81 1015.93 1016.06 1016.24 1016.22 1016.31 1016.61 1016.43 1016.52 1016.73 1016.86 1016.96 1016.91 1017.06 1017.41 1017.36 1017.37 1017.20 1017.15 1017.31 1017.22
1015.29 1015.43 1015.38 1016.00 1016.24 1016.44 1016.56 1016.52 1016.58 1016.52 1016.91 1016.95 1016.99 1017.05 1017.21 1017.44 1017.62 1017.54 1017.27 1017.63 1017.86 1017.62
1015.20 1015.44 1015.79 1016.12 1016.42 1016.56 1016.58 1016.59 1016.62 1016.73 1017.07 1017.22 1017.19 1017.23 1017.33 1017.68 1018.00 1017.94 1017.80 1018.25 1018.43 1018.19
1014.58 1015.07 1015.95 1016.32 1016.52 1016.50 1016.12 1016.38 1016.75 1017.10 1017.31 1017.48 1017.61 1017.87 1017.87 1018.06 1018.40 1018.44 1018.45 1018.68 1018.84 1018.71
1014.67 1015.38 1015.92 1016.20 1016.55 1016.50 1016.48 1016.81 1017.10 1017.35 1017.59 1017.85 1018.00 1018.15 1018.28 1018.46 1018.74 1018.74 1018.97 1019.24 1019.42 1019.42
1015.24 1015.61 1015.77 1016.02 1016.19 1016.51 1016.71 1016.94 1017.41 1017.73 1018.04 1018.16 1018.30 1018.64 1018.73 1018.92 1019.06 1019.18 1019.40 1019.75 1019.99 1019.97
1014.72 1014.95 1015.19 1015.48 1016.25 1016.58 1016.88 1017.23 1017.72 1018.09 1018.10 1018.20 1018.47 1018.86 1019.02 1019.20 1019.34 1019.53 1020.02 1020.48 1020.72 1020.78
1014.14 1014.47 1015.00 1015.77 1016.44 1016.72 1017.10 1017.60 1017.82 1017.96 1018.13 1018.29 1018.67 1018.94 1019.25 1019.44 1019.66 1019.98 1020.66 1021.12 1021.32 1021.40
1013.66 1014.19 1015.07 1015.84 1016.51 1017.01 1017.43 1017.52 1017.81 1017.93 1018.14 1018.59 1019.11 1019.36 1019.58 1019.55 1019.95 1020.38 1020.95 1021.33 1021.48 1021.55
1013.63 1014.43 1015.08 1015.76 1016.33 1016.85 1017.21 1017.46 1017.74 1018.06 1018.52 1019.22 1019.64 1019.72 1019.79 1019.80 1020.09 1020.37 1020.81 1020.97 1021.17 1021.06
1013.57 1014.36 1014.99 1015.53 1016.11 1016.69 1017.12 1017.55 1017.80 1018.27 1018.99 1019.58 1020.00 1019.98 1020.09 1020.24 1020.51 1020.67 1020.88 1021.11 1021.26 1021.52
1013.37 1014.11 1014.76 1015.38 1016.02 1016.44 1016.89 1017.41 1017.92 1018.52 1019.19 1019.76 1020.18 1020.25 1020.43 1020.66 1020.84 1021.15 1021.38 1021.66 1021.66 1021.90
1013.18 1013.85 1014.58 1015.19 1015.80 1016.19 1016.72 1017.33 1017.93 1018.59 1019.16 1019.75 1020.20 1020.46 1020.82 1021.12 1021.10 1021.41 1021.56 1021.87 1022.14 1022.16
1013.05 1013.71 1014.49 1015.15 1015.63 1016.14 1016.69 1017.28 1017.93 1018.58 1019.18 1019.73 1020.21 1020.57 1020.94 1021.19 1021.38 1020.91 1021.21 1021.53 1022.07 1022.54
Thickness
5772 5771 5773 5775 5776 5779 5783 5783 5788 5791 5791 5791 5793 5795 5794 5793 5795 5795 5795 5794 5792 5790
5771 5773 5776 5775 5776 5777 5779 5783 5786 5789 5789 5790 5791 5793 5794 5793 5793 5795 5796 5791 5788 5788
5769 5772 5773 5773 5771 5773 5778 5783 5785 5787 5788 5789 5790 5792 5794 5792 5792 5792 5792 5786 5783 5784
5774 5776 5771 5770 5769 5772 5781 5784 5784 5785 5785 5787 5788 5789 5790 5791 5789 5787 5785 5783 5780 5780
5771 5770 5770 5770 5770 5774 5778 5780 5782 5783 5784 5785 5786 5788 5789 5787 5785 5784 5781 5779 5777 5775
5765 5767 5769 5770 5771 5777 5780 5782 5782 5783 5782 5783 5785 5787 5787 5784 5783 5781 5780 5777 5772 5770
5771 5774 5775 5773 5774 5779 5781 5781 5781 5781 5784 5787 5788 5786 5785 5784 5782 5780 5776 5771 5766 5763
5780 5784 5782 5778 5777 5780 5781 5780 5781 5784 5787 5790 5788 5787 5784 5782 5779 5775 5769 5763 5759 5757
5791 5790 5786 5782 5781 5781 5781 5783 5784 5787 5789 5788 5785 5782 5780 5781 5777 5772 5765 5759 5757 5753
5795 5791 5790 5788 5786 5783 5784 5786 5787 5787 5786 5782 5779 5778 5777 5778 5775 5771 5765 5761 5757 5756
5800 5796 5794 5793 5790 5788 5788 5787 5787 5785 5782 5778 5775 5775 5775 5774 5770 5767 5763 5759 5756 5751
5804 5799 5797 5794 5792 5792 5791 5788 5786 5783 5779 5775 5772 5772 5772 5769 5766 5761 5758 5753 5751 5747
5808 5803 5798 5797 5795 5795 5793 5789 5786 5781 5779 5775 5771 5770 5766 5764 5763 5757 5755 5751 5747 5744
5810 5805 5801 5798 5796 5794 5791 5788 5784 5779 5777 5773 5769 5767 5764 5761 5760 5762 5757 5752 5746 5740